Weather History for KSYR - February, 2013

Change the Weather History Date:

Wednesday, February 6, 2013

  Actual Average Record
Temperature  
Mean Temperature 19 °F 24 °F  
Max Temperature 28 °F 33 °F 55 °F (1938)
Min Temperature 9 °F 16 °F -17 °F (1948)
Degree Days  
Heating Degree Days 46 41  
Month to date heating degree days 287 246  
Since 1 July heating degree days 3554 3982  
Cooling Degree Days 0 0  
Month to date cooling degree days 0 0  
Year to date cooling degree days 0 0  
Moisture  
Dew Point 15 °F    
Average Humidity 61    
Maximum Humidity 75    
Minimum Humidity 46    
Precipitation  
Precipitation T in 0.07 in 0.91 in (2008)
Month to date precipitation 0.51 0.42  
Year to date precipitation 2.22 2.92  
Snow  
Snow 0.60 in 0.90 in 7.10 in (1978)
Month to date snowfall 15.8 5.9  
Since 1 July snowfall 62.6 82.5  
Snow Depth 6.00 in    
Sea Level Pressure  
Sea Level Pressure 30.09 in    
Wind  
Wind Speed 11 mph (West)    
Max Wind Speed 26 mph    
Max Gust Speed 35 mph    
Visibility 6 miles    
Events Snow    
T = Trace of Precipitation, MM = Missing Value Source: NWS Daily Summary

Daily Weather History Graph

Daily Weather History Graph

Search for Another Location

Airport or City:

Trip Planner

Search our weather history database for the weather conditions in past years. The results will help you decide how hot, cold, wet, or windy it might be!

Date:

Astronomy

Feb. 06, 2013 Rise Set
Actual Time 7:13 AM EST 5:23 PM EST
Civil Twilight 6:43 AM EST 5:53 PM EST
Nautical Twilight 6:10 AM EST 6:27 PM EST
Astronomical Twilight 5:37 AM EST 7:00 PM EST
Moon 3:58 AM EST (2/6) 1:36 PM EST (2/6)
Length of Visible Light 11h 09m
Length of Day
10h 10m
Waning Crescent, 17% of the Moon is Illuminated
Feb 6
Waning Crescent
Feb 10
New
Feb 17
First Quarter
Feb 25
Full
Mar 4
Last Quarter

Hourly Weather History & Observations

Time (EST) Temp. Windchill Dew Point Humidity Pressure Visibility Wind Dir Wind Speed Gust Speed Precip Events Conditions
12:54 AM 19.0 °F - 10.9 °F 71% 29.89 in 10.0 mi Calm Calm - N/A   Overcast
1:54 AM 19.0 °F - 12.9 °F 77% 29.88 in 10.0 mi Calm Calm - N/A   Overcast
2:54 AM 21.0 °F - 14.0 °F 74% 29.89 in 10.0 mi Calm Calm - N/A   Overcast
3:19 AM 23.0 °F 18.4 °F 15.8 °F 74% 29.88 in 10.0 mi WSW 3.5 mph - 0.00 in Snow Light Snow
3:54 AM 27.0 °F 18.0 °F 17.1 °F 66% 29.91 in 9.0 mi WSW 9.2 mph - 0.00 in   Overcast
4:21 AM 26.6 °F 16.8 °F 17.6 °F 69% 29.90 in 10.0 mi SW 10.4 mph - N/A   Overcast
4:54 AM 28.0 °F 18.1 °F 18.0 °F 66% 29.92 in 10.0 mi SW 11.5 mph - N/A   Overcast
5:54 AM 28.0 °F 17.0 °F 19.0 °F 69% 29.94 in 10.0 mi WSW 13.8 mph - 0.00 in Snow Light Snow
6:33 AM 28.4 °F 17.0 °F 21.2 °F 74% 29.95 in 1.8 mi SW 15.0 mph - 0.00 in Snow Light Snow
6:43 AM 28.4 °F 17.5 °F 21.2 °F 74% 29.95 in 2.5 mi WSW 13.8 mph - 0.00 in Snow Light Snow
6:46 AM 28.4 °F 17.5 °F 21.2 °F 74% 29.95 in 3.0 mi WSW 13.8 mph - 0.00 in Snow Light Snow
6:54 AM 28.0 °F 15.7 °F 21.9 °F 78% 29.97 in 5.0 mi WSW 17.3 mph 23.0 mph 0.00 in Snow Light Snow
7:03 AM 28.4 °F 16.6 °F 21.2 °F 74% 29.96 in 5.0 mi WSW 16.1 mph 23.0 mph 0.00 in Snow Light Snow
7:54 AM 28.0 °F 16.1 °F 21.9 °F 78% 30.00 in 3.0 mi WSW 16.1 mph 24.2 mph 0.00 in Snow Light Snow
8:10 AM 28.4 °F 15.4 °F 21.2 °F 74% 30.00 in 1.5 mi West 19.6 mph - 0.00 in Snow Light Snow
8:20 AM 28.4 °F 16.6 °F 21.2 °F 74% 30.01 in 0.8 mi West 16.1 mph 24.2 mph 0.00 in Snow Light Snow
8:35 AM 28.4 °F 17.0 °F 23.0 °F 80% 30.03 in 1.0 mi West 15.0 mph 20.7 mph 0.00 in Snow Light Snow
8:42 AM 28.4 °F 17.0 °F 23.0 °F 80% 30.03 in 1.0 mi West 15.0 mph 20.7 mph 0.00 in Snow Light Snow
8:54 AM 28.0 °F 16.1 °F 21.9 °F 78% 30.05 in 1.0 mi West 16.1 mph 23.0 mph 0.00 in Snow Light Snow
9:09 AM 28.4 °F 15.8 °F 21.2 °F 74% 30.05 in 3.0 mi West 18.4 mph 24.2 mph 0.00 in Snow Light Snow
9:35 AM 28.4 °F 14.7 °F 19.4 °F 69% 30.07 in 2.0 mi WNW 21.9 mph 31.1 mph 0.00 in Snow Light Snow
9:45 AM 28.4 °F 15.8 °F 19.4 °F 69% 30.07 in 3.0 mi WNW 18.4 mph 25.3 mph 0.00 in Snow Light Snow
9:54 AM 28.0 °F 16.5 °F 19.0 °F 69% 30.08 in 3.0 mi West 15.0 mph - 0.00 in Snow Light Snow
10:02 AM 28.4 °F 15.8 °F 17.6 °F 64% 30.08 in 2.0 mi West 18.4 mph 23.0 mph 0.00 in Snow Light Snow
10:04 AM 26.6 °F 13.4 °F 17.6 °F 69% 30.08 in 0.8 mi West 18.4 mph - 0.00 in Snow Light Snow
10:17 AM 26.6 °F 14.7 °F 19.4 °F 74% 30.10 in 1.0 mi WNW 15.0 mph - 0.00 in Snow Light Snow
10:21 AM 26.6 °F 15.2 °F 19.4 °F 74% 30.10 in 2.0 mi WNW 13.8 mph - 0.00 in Snow Light Snow
10:30 AM 26.6 °F 14.7 °F 19.4 °F 74% 30.10 in 1.2 mi WNW 15.0 mph - 0.00 in Snow Light Snow
10:38 AM 26.6 °F 13.8 °F 19.4 °F 74% 30.11 in 1.0 mi WNW 17.3 mph 24.2 mph 0.00 in Snow Light Snow
10:52 AM 26.6 °F 12.7 °F 17.6 °F 69% 30.12 in 2.0 mi NW 20.7 mph 25.3 mph 0.00 in Snow Light Snow
10:54 AM 26.1 °F 12.0 °F 17.1 °F 69% 30.14 in 2.5 mi WNW 20.7 mph 25.3 mph 0.00 in Snow Light Snow
11:03 AM 26.6 °F 15.2 °F 17.6 °F 69% 30.13 in 3.0 mi WNW 13.8 mph - 0.00 in Snow Light Snow
11:08 AM 26.6 °F 14.3 °F 17.6 °F 69% 30.13 in 6.0 mi WNW 16.1 mph 21.9 mph 0.00 in Snow Light Snow
11:54 AM 26.1 °F 11.0 °F 14.0 °F 60% 30.16 in 5.0 mi West 24.2 mph 31.1 mph 0.00 in Snow Blowing Snow
12:54 PM 25.0 °F 11.3 °F 9.0 °F 51% 30.18 in 7.0 mi West 18.4 mph 32.2 mph 0.00 in   Scattered Clouds
1:54 PM 25.0 °F 11.3 °F 6.1 °F 45% 30.21 in 10.0 mi West 18.4 mph 27.6 mph N/A   Partly Cloudy
2:54 PM 24.1 °F 10.1 °F 6.1 °F 46% 30.23 in 10.0 mi West 18.4 mph 26.5 mph N/A   Partly Cloudy
3:54 PM 23.0 °F 11.1 °F 7.0 °F 50% 30.26 in 10.0 mi West 12.7 mph 23.0 mph N/A   Scattered Clouds
4:54 PM 21.9 °F 11.0 °F 7.0 °F 53% 30.29 in 10.0 mi WNW 10.4 mph - N/A   Scattered Clouds
5:54 PM 19.9 °F 9.3 °F 6.1 °F 55% 30.31 in 10.0 mi West 9.2 mph - N/A   Partly Cloudy
6:54 PM 18.0 °F 8.7 °F 6.1 °F 60% 30.33 in 10.0 mi WSW 6.9 mph - N/A   Partly Cloudy
7:54 PM 16.0 °F 7.4 °F 6.1 °F 65% 30.35 in 10.0 mi WSW 5.8 mph - N/A   Partly Cloudy
8:54 PM 17.1 °F 11.7 °F 6.1 °F 62% 30.37 in 10.0 mi West 3.5 mph - N/A   Clear
9:54 PM 15.1 °F 7.7 °F 6.1 °F 68% 30.39 in 10.0 mi WSW 4.6 mph - N/A   Clear
10:54 PM 14.0 °F - 5.0 °F 67% 30.38 in 10.0 mi Calm Calm - N/A   Clear
11:54 PM 10.0 °F - 3.9 °F 76% 30.40 in 10.0 mi Calm Calm - N/A   Mostly Cloudy